[[{"header":{"parameterUnit":"m.s-1","parameterCategory":1,"la1":30.2991,"la2":30.254,"lo1":-89.0895,"lo2":-89.0444,"dy":0.0017,"dx":0.0017,"nx":28,"ny":28,"refTime":"2023-11-09T09:00:00:Z","depth":0,"parameterNumber":2,"parameterNumberName":"U-component_of_WINDS"},"data":[0,0,0,0,0,0,0,0,0,0,0,0,0,0,0,0,0,0,0,0,0,0,0,0,0,0,0,0,0,0,0,0,0,0,0,0,0,0,0,0,0,0,0,0,0,0,0,0,0,0,0,0,0,0,0,0,0,0,-1.7898,-1.7897,0,-1.7884,-1.7883,-1.7883,-1.7823,-1.7822,-1.782,-1.7819,-1.7807,-1.7808,-1.7809,0,0,0,0,0,0,0,0,0,0,0,0,0,-1.7874,-1.7875,-1.7898,-1.7897,-1.7897,-1.7884,-1.7883,-1.7883,-1.7823,-1.7822,-1.782,-1.7818,-1.7806,-1.7807,-1.7809,0,0,0,0,0,0,0,0,0,0,0,0,0,-1.7875,-1.7875,-1.7898,-1.7866,-1.7863,-1.7884,-1.7883,-1.7883,-1.7824,-1.7822,-1.7819,-1.7817,-1.7806,-1.7807,-1.7809,-1.786,0,0,-1.7813,-1.7814,0,0,0,0,0,0,0,0,-1.7875,-1.7875,-1.7871,-1.7868,-1.7865,-1.7853,-1.787,-1.7876,-1.7824,-1.7839,-1.7819,-1.7816,-1.7824,-1.7824,-1.7826,-1.786,-1.7859,-1.7813,-1.7814,-1.7815,-1.7815,0,0,0,0,0,0,0,-1.7875,-1.7876,-1.7892,-1.7871,-1.7867,-1.7852,-1.785,-1.7871,-1.7843,-1.7837,-1.7833,-1.7832,-1.7822,-1.7825,-1.7825,-1.7859,-1.7813,-1.7815,-1.7816,-1.7816,-1.7933,-1.7935,0,0,0,0,0,0,-1.7879,-1.7876,-1.7893,-1.7892,-1.7864,-1.7855,-1.7852,-1.7859,-1.7843,-1.7838,-1.7834,-1.7829,-1.7823,-1.7823,-1.7824,-1.7882,-1.7815,-1.7816,-1.7817,-1.7931,-1.7934,-1.7936,0,0,0,0,0,0,-1.7879,-1.7881,-1.7893,-1.7883,-1.7883,-1.7857,-1.7865,-1.786,-1.7862,-1.784,-1.7835,-1.7841,-1.7821,-1.7822,-1.7851,-1.7881,-1.7817,-1.7818,-1.7928,-1.7932,-1.7935,-1.8,0,0,0,0,0,0,-1.7878,-1.7881,-1.79,-1.7884,-1.7884,-1.792,-1.7867,-1.7861,-1.7865,-1.7859,-1.7846,-1.7842,-1.782,-1.7849,-1.7853,-1.7882,-1.7819,-1.7925,-1.793,-1.7934,-1.7995,-1.8005,-1.8013,0,0,0,0,0,-1.7877,-1.792,-1.7901,-1.7904,-1.7907,-1.7922,-1.7922,-1.7895,-1.7867,-1.7886,-1.7872,-1.7842,-1.7878,-1.7853,-1.7856,-1.7886,-1.7923,-1.7929,-1.7933,-1.799,-1.8003,-1.8013,0,0,0,0,0,0,-1.7941,-1.7917,-1.7896,-1.7934,-1.793,-1.7912,-1.7935,-1.7909,-1.7914,-1.7908,-1.7875,-1.7873,-1.7906,-1.7899,-1.7872,-1.7935,-1.7895,-1.7901,-1.7938,-1.7949,-1.7958,-1.7959,-1.7821,0,0,0,0,0,-1.7959,-1.7973,-1.7951,-1.7987,-1.7986,-1.7961,-1.7966,-1.7946,-1.7941,-1.7939,-1.7927,-1.7924,-1.7934,-1.7941,-1.795,-1.7994,-1.799,-1.8016,-1.8025,-1.8033,-1.8038,-1.806,-1.8071,-1.7952,-1.7952,-1.7952,0,0,-1.7998,-1.7986,-1.7997,-1.7999,-1.7994,-1.8009,-1.796,-1.7978,-1.7989,-1.7942,-1.7968,-1.7959,-1.7954,-1.799,-1.8006,-1.7985,-1.807,-1.804,-1.8046,-1.8047,-1.8066,-1.8077,-1.8087,-1.7956,-1.7955,-1.7955,0,0,-1.8074,-1.8068,-1.8096,-1.8091,-1.8083,-1.8066,-1.8073,-1.8058,-1.805,-1.8076,-1.8041,-1.8053,-1.8072,-1.8069,-1.807,-1.8145,-1.8118,-1.8149,-1.8197,-1.8219,-1.8228,-1.8236,-1.8262,-1.8272,-1.8155,-1.8155,-1.8155,0,-1.8123,-1.8143,-1.8114,-1.8134,-1.8135,-1.8093,-1.8121,-1.8119,-1.8115,-1.8117,-1.8095,-1.8116,-1.8109,-1.8144,-1.8162,-1.8165,-1.8171,-1.815,-1.8229,-1.8237,-1.8244,-1.8268,-1.8278,-1.8158,-1.8158,-1.8158,-1.8157,0,-1.8203,-1.8218,-1.8242,-1.8237,-1.8242,-1.8267,-1.824,-1.8249,-1.8228,-1.8214,-1.824,-1.8231,-1.8235,-1.8243,-1.8223,-1.8274,-1.8262,-1.8235,-1.8194,-1.826,-1.8281,-1.8291,-1.8164,-1.8162,-1.8161,-1.816,0,0,-1.8319,-1.8297,-1.8307,-1.8303,-1.8292,-1.8303,-1.8325,-1.8329,-1.8337,-1.8336,-1.8353,-1.837,-1.8344,-1.8345,-1.8325,-1.8344,-1.8403,-1.8315,-1.8314,-1.833,-1.8458,-1.8477,-1.8488,-1.8385,-1.8387,-1.8388,-1.8457,0,-1.8391,-1.8427,-1.84,-1.8441,-1.8454,-1.8414,-1.8433,-1.8428,-1.8416,-1.8425,-1.8411,-1.8423,-1.8389,-1.8389,-1.8406,-1.8392,-1.8428,-1.8387,-1.8401,-1.8402,-1.8402,-1.85,-1.852,-1.8586,-1.8466,-1.8467,-1.8469,0,-1.848,-1.8481,-1.8523,-1.8507,-1.8512,-1.8529,-1.853,-1.854,-1.8534,-1.8523,-1.8524,-1.8499,-1.852,-1.8481,-1.8509,-1.8482,-1.8486,-1.848,-1.8482,-1.8481,-1.8438,-1.85,-1.8606,-1.8615,-1.8482,-1.8481,-1.848,0,-1.8559,-1.8571,-1.8597,-1.8596,-1.8579,-1.8592,-1.8586,-1.8577,-1.8581,-1.8583,-1.8585,-1.8589,-1.8591,-1.8595,-1.8572,-1.8546,-1.8603,-1.8562,-1.8594,-1.8594,-1.8606,-1.8605,-1.8713,-1.8612,-1.8612,-1.8611,-1.8611,0,-1.8641,-1.8668,-1.8632,-1.8648,-1.8676,-1.8646,-1.8676,-1.8665,-1.8658,-1.8671,-1.8638,-1.8651,-1.862,-1.863,-1.8612,-1.8637,-1.8639,-1.863,-1.8625,-1.8632,-1.8633,-1.8634,-1.8628,-1.8614,-1.8613,-1.8613,-1.8612,0,-1.8733,-1.871,-1.8736,-1.8717,-1.8713,-1.8735,-1.8719,-1.8734,-1.8718,-1.8736,-1.8738,-1.8714,-1.8725,-1.8702,-1.8709,-1.8697,-1.8732,-1.872,-1.8734,-1.873,-1.8762,-1.8758,-1.8872,-1.8885,-1.8777,-1.8778,-1.8779,0,-1.8787,-1.8806,-1.8789,-1.8795,-1.879,-1.8801,-1.8804,-1.8776,-1.878,-1.8774,-1.8789,-1.8796,-1.88,-1.8818,-1.8802,-1.8807,-1.8794,-1.8834,-1.8795,-1.8801,-1.8793,-1.8791,-1.8792,-1.8841,-1.8843,-1.8844,-1.8845,0,-1.8883,-1.8871,-1.8876,-1.8878,-1.8883,-1.8883,-1.8881,-1.8888,-1.8858,-1.8865,-1.8874,-1.8878,-1.8884,-1.8892,-1.8893,-1.8887,-1.8861,-1.8857,-1.8864,-1.8871,-1.8878,-1.8873,-1.8754,-1.8854,-1.8853,-1.8853,-1.8852,-1.8852,-1.8956,-1.8971,-1.8961,-1.8969,-1.8964,-1.8963,-1.8974,-1.896,-1.8967,-1.897,-1.8953,-1.8966,-1.8958,-1.8957,-1.8954,-1.8964,-1.8946,-1.8957,-1.8959,-1.8962,-1.8966,-1.8878,-1.8964,-1.8964,-1.8963,-1.8963,-1.8963,0,-1.905,-1.9041,-1.9049,-1.9046,-1.9052,-1.9026,-1.9023,-1.9029,-1.9041,-1.9036,-1.904,-1.905,-1.9057,-1.9041,-1.9046,-1.9056,-1.9044,-1.9058,-1.9056,-1.9055,-1.8983,-1.8975,-1.9068,-1.9068,-1.9068,-1.9068,-1.9068,-1.9068,-1.9099,-1.9122,-1.9109,-1.9129,-1.912,-1.9132,-1.9132,-1.913,-1.9126,-1.9139,-1.9144,-1.9133,-1.9124,-1.9127,-1.9132,-1.9127,-1.913,-1.9147,-1.9138,-1.9071,-1.906,-1.9051,-1.9043,-1.9149,-1.9149,-1.921,-1.921,-1.9211]},{"header":{"parameterUnit":"m.s-1","parameterCategory":1,"la1":30.2991,"la2":30.254,"lo1":-89.0895,"lo2":-89.0444,"dy":0.0017,"dx":0.0017,"nx":28,"ny":28,"refTime":"2023-11-09T09:00:00:Z","depth":0,"parameterNumber":3,"parameterNumberName":"V-component_of_WINDS"},"data":[0,0,0,0,0,0,0,0,0,0,0,0,0,0,0,0,0,0,0,0,0,0,0,0,0,0,0,0,0,0,0,0,0,0,0,0,0,0,0,0,0,0,0,0,0,0,0,0,0,0,0,0,0,0,0,0,0,0,-0.3575,-0.3575,0,-0.3589,-0.3589,-0.3589,-0.3609,-0.361,-0.361,-0.3611,-0.3621,-0.3621,-0.3621,0,0,0,0,0,0,0,0,0,0,0,0,0,-0.3561,-0.3562,-0.3575,-0.3575,-0.3576,-0.3589,-0.3589,-0.3589,-0.3609,-0.361,-0.361,-0.3611,-0.3621,-0.3621,-0.3621,0,0,0,0,0,0,0,0,0,0,0,0,0,-0.357,-0.3562,-0.3575,-0.3587,-0.3589,-0.3589,-0.3589,-0.3589,-0.3609,-0.361,-0.361,-0.3611,-0.3621,-0.3621,-0.3621,-0.3609,0,0,-0.3621,-0.3621,0,0,0,0,0,0,0,0,-0.357,-0.3571,-0.3585,-0.3587,-0.3588,-0.3598,-0.3588,-0.3596,-0.3609,-0.3601,-0.3611,-0.3611,-0.3613,-0.3613,-0.3615,-0.361,-0.361,-0.3621,-0.3621,-0.3621,-0.3621,0,0,0,0,0,0,0,-0.3569,-0.357,-0.3581,-0.3586,-0.3587,-0.359,-0.3592,-0.359,-0.3604,-0.3602,-0.3604,-0.3605,-0.3614,-0.3615,-0.3615,-0.3611,-0.3621,-0.3621,-0.3621,-0.3621,-0.3593,-0.3592,0,0,0,0,0,0,-0.3567,-0.357,-0.358,-0.3581,-0.358,-0.359,-0.3592,-0.3594,-0.3604,-0.3606,-0.3605,-0.3606,-0.3615,-0.3615,-0.3616,-0.36,-0.3621,-0.3621,-0.3621,-0.3593,-0.3592,-0.3592,0,0,0,0,0,0,-0.3567,-0.3568,-0.358,-0.3576,-0.3577,-0.359,-0.3592,-0.3594,-0.3595,-0.3606,-0.3608,-0.3604,-0.3615,-0.3616,-0.361,-0.3601,-0.3621,-0.362,-0.3594,-0.3593,-0.3592,-0.3571,0,0,0,0,0,0,-0.3566,-0.3568,-0.3565,-0.3576,-0.3578,-0.3576,-0.3591,-0.3594,-0.3596,-0.3598,-0.3605,-0.3607,-0.3616,-0.361,-0.361,-0.3601,-0.362,-0.3595,-0.3594,-0.3592,-0.3572,-0.3569,-0.3567,0,0,0,0,0,-0.3566,-0.3559,-0.3565,-0.3566,-0.3575,-0.3575,-0.3576,-0.3587,-0.3595,-0.3591,-0.3597,-0.3607,-0.3602,-0.3609,-0.3609,-0.36,-0.3596,-0.3594,-0.3592,-0.3574,-0.357,-0.3567,0,0,0,0,0,0,-0.3547,-0.3561,-0.3568,-0.3564,-0.3568,-0.3579,-0.3575,-0.3583,-0.3585,-0.3586,-0.3598,-0.36,-0.3592,-0.3596,-0.3604,-0.3587,-0.36,-0.3598,-0.3586,-0.3582,-0.3579,-0.3578,-0.362,0,0,0,0,0,-0.3543,-0.3543,-0.3555,-0.355,-0.3552,-0.3563,-0.3563,-0.3571,-0.3576,-0.3577,-0.3583,-0.3586,-0.3584,-0.3584,-0.3583,-0.3573,-0.3573,-0.3566,-0.3563,-0.3561,-0.3559,-0.355,-0.3546,-0.3587,-0.3587,-0.3587,0,0,-0.3533,-0.3541,-0.3541,-0.3546,-0.3551,-0.3549,-0.3564,-0.3563,-0.3561,-0.3577,-0.3572,-0.3575,-0.3579,-0.357,-0.3566,-0.3573,-0.3548,-0.3559,-0.3557,-0.3556,-0.3548,-0.3544,-0.3541,-0.3585,-0.3586,-0.3586,0,0,-0.3516,-0.3522,-0.3518,-0.3521,-0.3527,-0.3534,-0.3532,-0.3541,-0.3544,-0.3539,-0.355,-0.3547,-0.3545,-0.3546,-0.3547,-0.3525,-0.3533,-0.3524,-0.3508,-0.35,-0.3497,-0.3494,-0.3483,-0.348,-0.3522,-0.3522,-0.3522,0,-0.3503,-0.3503,-0.3515,-0.3512,-0.3512,-0.3526,-0.352,-0.3523,-0.3528,-0.3527,-0.3534,-0.353,-0.3534,-0.3523,-0.3518,-0.3518,-0.3515,-0.3523,-0.3496,-0.3494,-0.3491,-0.3481,-0.3478,-0.3521,-0.3521,-0.3521,-0.3521,0,-0.3486,-0.3485,-0.348,-0.3485,-0.3485,-0.3481,-0.3489,-0.3488,-0.3494,-0.3499,-0.3491,-0.3496,-0.3495,-0.3493,-0.35,-0.3482,-0.3486,-0.3495,-0.3507,-0.3486,-0.3477,-0.3473,-0.3519,-0.352,-0.352,-0.352,0,0,-0.3459,-0.3468,-0.3466,-0.3466,-0.3472,-0.3471,-0.3465,-0.3464,-0.3462,-0.3463,-0.3457,-0.3454,-0.3461,-0.3461,-0.3467,-0.3459,-0.3438,-0.3468,-0.3469,-0.3461,-0.3416,-0.3409,-0.3405,-0.3443,-0.3443,-0.3442,-0.3415,0,-0.3442,-0.3434,-0.3443,-0.3433,-0.343,-0.3441,-0.3435,-0.3437,-0.344,-0.3437,-0.344,-0.3436,-0.3447,-0.3447,-0.344,-0.3442,-0.3429,-0.3444,-0.3435,-0.3435,-0.3434,-0.34,-0.3394,-0.3368,-0.3412,-0.3411,-0.3411,0,-0.3421,-0.3422,-0.3411,-0.3414,-0.3413,-0.3409,-0.3407,-0.3404,-0.3404,-0.3407,-0.3405,-0.3412,-0.3404,-0.3416,-0.3403,-0.3413,-0.3409,-0.3409,-0.3409,-0.3408,-0.3421,-0.3397,-0.3361,-0.3356,-0.3406,-0.3406,-0.3407,0,-0.34,-0.3398,-0.3391,-0.3391,-0.3395,-0.3391,-0.3392,-0.3393,-0.3391,-0.3388,-0.3386,-0.3383,-0.338,-0.3376,-0.3381,-0.3389,-0.3366,-0.3379,-0.3365,-0.3365,-0.336,-0.336,-0.3321,-0.3359,-0.3359,-0.3359,-0.336,0,-0.338,-0.3373,-0.3381,-0.3377,-0.3367,-0.3375,-0.3365,-0.3367,-0.3367,-0.3361,-0.337,-0.3364,-0.337,-0.3364,-0.3367,-0.3354,-0.3353,-0.3353,-0.3354,-0.3352,-0.3351,-0.3349,-0.3351,-0.3358,-0.3359,-0.3359,-0.3359,0,-0.3356,-0.3362,-0.3354,-0.3357,-0.3358,-0.335,-0.3352,-0.3346,-0.3349,-0.3341,-0.3339,-0.3343,-0.3335,-0.3339,-0.3331,-0.3333,-0.3315,-0.3319,-0.3316,-0.3316,-0.3302,-0.3302,-0.3259,-0.3253,-0.3296,-0.3296,-0.3295,0,-0.3343,-0.3337,-0.3339,-0.3336,-0.3336,-0.3331,-0.3328,-0.3334,-0.3331,-0.3328,-0.3322,-0.3315,-0.331,-0.3296,-0.3297,-0.3289,-0.3292,-0.3277,-0.3291,-0.3288,-0.3289,-0.3289,-0.3287,-0.3274,-0.3274,-0.3274,-0.3273,0,-0.3317,-0.3319,-0.3316,-0.3312,-0.3308,-0.3306,-0.3303,-0.33,-0.3305,-0.33,-0.3292,-0.3288,-0.3278,-0.327,-0.3263,-0.3262,-0.3267,-0.3269,-0.3265,-0.3262,-0.326,-0.3259,-0.3307,-0.327,-0.327,-0.327,-0.3271,-0.3271,-0.3297,-0.3291,-0.3291,-0.3285,-0.3284,-0.328,-0.3274,-0.3275,-0.3269,-0.3263,-0.3266,-0.3256,-0.3251,-0.3242,-0.324,-0.323,-0.3235,-0.3231,-0.3229,-0.3227,-0.3224,-0.3262,-0.3229,-0.3229,-0.3229,-0.3229,-0.3229,0,-0.327,-0.327,-0.3265,-0.326,-0.3255,-0.3261,-0.3258,-0.3252,-0.3244,-0.324,-0.3234,-0.3222,-0.3213,-0.3212,-0.3202,-0.3195,-0.3197,-0.3192,-0.3192,-0.3191,-0.3221,-0.3225,-0.319,-0.319,-0.319,-0.319,-0.319,-0.319,-0.3256,-0.3246,-0.3247,-0.3234,-0.3233,-0.3224,-0.3221,-0.3216,-0.3213,-0.32,-0.3193,-0.3192,-0.3188,-0.3178,-0.3168,-0.3168,-0.3163,-0.3157,-0.3157,-0.3185,-0.3189,-0.3193,-0.3196,-0.3156,-0.3156,-0.3127,-0.3127,-0.3126]}]]